Location: Guayaquil
(2.1667°S, 79.9000°W)
Time: 23:38:00
(UTC-05:00)

Envisat - Pass Details

Date: 16 August 2020
Orbit: 764 x 766 km, 98.1° (Epoch: 26 September)

Event Time Altitude Azimuth Distance (km) Brightness Sun altitude
Rises 19:18:38 0° 206° (SSW) 3,232 6.4 -13.9°
Reaches altitude 10° 19:22:45 10° 239° (WSW) 2,301 6.1 -14.9°
Maximum altitude 19:24:16 11° 257° (WSW) 2,210 6.4 -15.2°
Drops below altitude 10° 19:25:47 10° 274° (W) 2,298 6.8 -15.6°
Sets 19:29:54 0° 308° (NW) 3,219 7.5 -16.6°
